Location: Stebbing
(51.8833°N, 0.4167°E)
Time: 02:41:32
(UTC+00:00)

Daily predictions for brighter satellites

Satellite Brightness Start Highest point End
(mag) Time Altitude Azimuth Time Altitude Azimuth Time Altitude Azimuth
Cosmos 1461 3.0 00:00:58 10° NW 00:05:01 57° SW 00:06:31 35° S
Cosmos 1553 Rocket 4.0 00:03:21 27° S 00:06:53 74° E 00:13:06 10° NNE
Cosmos 1867 3.9 00:05:01 29° S 00:07:30 50° ESE 00:12:47 10° NE
Cosmos 2221 Rocket 3.6 00:06:47 33° S 00:08:40 70° E 00:13:05 10° NNE
Cosmos 1674 Rocket 4.0 00:06:55 29° SSE 00:08:45 49° E 00:12:56 10° NNE
Cosmos 1238 Rocket 2.0 00:08:34 10° N 00:11:32 87° E 00:12:06 55° SSE
Cosmos 1674 2.6 00:10:51 40° S 00:12:05 78° E 00:15:52 10° NNE
ATLAS CENTAUR R/B 2.7 00:08:44 10° WNW 00:12:53 28° WSW 00:13:59 26° SW
SL-19 R/B 3.9 00:17:33 47° SW 00:18:01 53° WSW 00:20:53 10° NNW
SL-16 R/B 4.5 00:17:54 10° ESE 00:19:39 11° E 00:21:23 10° ENE
Cosmos 468 4.4 00:16:13 10° NNW 00:21:28 79° WSW 00:24:28 26° SSE
ATLAS 5 CENTAUR R/B 3.4 00:06:00 10° NW 00:21:31 67° SW 00:24:40 22° SSE
CZ-4C R/B 3.1 00:14:43 10° NW 00:21:42 59° SW 00:27:52 19° SSE
Cosmos 2322 Rocket 3.7 00:17:00 10° WSW 00:22:03 33° NW 00:27:08 10° NNE
Cosmos 2333 Rocket 2.5 00:19:42 19° SW 00:23:47 67° NW 00:29:28 10° NNE
Cosmos 1378 Rocket 3.7 00:22:19 31° S 00:24:18 67° E 00:28:44 10° NNE
Cosmos 1844 Rocket 4.5 00:21:01 10° WNW 00:24:26 17° W 00:26:32 14° SW
Cosmos 2322 3.7 00:20:47 23° SSW 00:24:27 84° WNW 00:30:14 10° NNE
USA 215 3.3 00:20:28 10° ENE 00:27:03 86° NNW 00:33:38 10° WSW
PSLV R/B 3.7 00:28:26 10° N 00:32:48 75° WNW 00:35:01 29° SSW
NOSS 0 Rocket 4.3 00:29:23 25° S 00:32:50 52° ESE 00:38:51 10° NE
Meteor 2-10 Rocket 4.2 00:31:16 10° N 00:36:56 58° ENE 00:41:17 16° SSE
Cosmos 2151 Rocket 4.1 00:34:50 10° NNW 00:39:03 46° W 00:40:53 29° SSW
Cosmos 1745 Rocket 4.0 00:34:28 10° NNW 00:40:43 75° W 00:44:34 24° S
Cosmos 839 Rocket 4.1 00:35:55 10° NW 00:42:11 73° SW 00:49:12 11° SSE
Okean 2 Rocket 3.9 00:39:07 10° NNW 00:43:20 38° W 00:45:14 26° SW
Okean 2 4.0 00:42:13 26° SW 00:44:07 45° WNW 00:48:05 10° N
ADEOS Rocket 3.9 00:42:18 21° SW 00:45:09 31° W 00:50:28 10° NNW
USA 308 3.9 00:44:46 26° SSE 00:45:23 27° SE 00:48:56 10° E
Cosmos 2219 Rocket 2.6 00:42:56 18° SW 00:47:04 59° NW 00:52:37 10° NNE
Meteor 2-12 Rocket 4.4 00:42:13 10° NNW 00:48:21 87° WSW 00:52:26 22° S
Meteor 1-16 Rocket 4.5 00:42:40 10° NNW 00:48:33 62° W 00:52:02 25° S
Cosmos 1707 4.4 00:50:02 17° WSW 00:52:02 25° WNW 00:55:19 10° NNW
GP-B 3.3 00:51:04 10° N 00:55:30 64° E 00:58:07 24° SSE
CZ-2D R/B 3.4 00:53:42 10° NNE 00:58:30 32° E 01:02:28 14° SSE
Cosmos 1300 2.6 00:55:53 10° NNW 00:59:42 81° W 01:01:27 30° S
Lacrosse 5 3.5 00:58:31 16° SSE 01:00:19 19° SE 01:03:55 10° E
ASTEX 1 4.3 00:57:42 10° N 01:02:15 39° WNW 01:05:07 20° SW
SL-14 R/B 3.2 01:02:27 31° SSW 01:04:13 79° WNW 01:08:06 10° N
USA 267 4.1 01:02:14 22° SSW 01:04:52 29° SW 01:10:26 10° WNW
USA 305 3.3 01:07:08 29° SSW 01:08:40 42° SE 01:12:37 10° ENE
Cosmos 371 Rocket 3.3 01:06:03 26° SSW 01:08:51 89° ESE 01:13:45 10° NNE
USA 229 DEB 4.2 01:02:01 10° NW 01:08:59 48° WSW 01:15:06 15° S
USA 229 4.2 01:02:07 10° NW 01:09:05 48° WSW 01:15:15 15° S
Cosmos 2150 Rocket 3.9 01:06:08 25° SSW 01:09:16 88° WNW 01:14:28 10° NNE
Cosmos 2237 Rocket 2.3 01:11:28 23° SSW 01:15:06 75° ESE 01:20:49 10° NNE
COSMOS 2428 3.3 01:12:17 16° SW 01:16:47 51° NW 01:22:21 10° NNE
Cosmos 1437 Rocket 3.9 01:14:48 10° NNW 01:18:02 28° W 01:19:16 23° SW
Cosmos 405 Rocket 3.7 01:18:03 22° WSW 01:19:54 35° WNW 01:23:26 10° N
Cosmos 304 Rocket 3.8 01:17:17 24° SSW 01:20:10 74° ESE 01:25:00 10° NNE
SL-16 R/B 2.8 01:15:33 10° SSE 01:21:42 69° ENE 01:27:56 10° NNW
Okean 1 Rocket 4.0 01:18:02 10° NNW 01:22:01 34° W 01:24:05 22° SW
Lacrosse 5 rocket 3.3 01:21:54 12° SSE 01:23:12 14° SE 01:25:16 10° E
Cosmos 1125 Rocket 3.6 01:20:01 21° SW 01:23:26 68° WNW 01:28:39 10° NNE
Cosmos 1953 3.5 01:21:21 10° NNW 01:24:50 29° W 01:26:26 21° SW
Cosmos 2074 Rocket 4.4 01:20:53 10° N 01:27:09 65° ENE 01:33:25 10° SSE
SME Rocket 3.3 01:24:34 21° S 01:27:13 68° WSW 01:32:36 10° NNW
Cosmos 2360 Rocket 4.3 01:23:23 10° W 01:27:43 22° NW 01:32:05 10° NNE
Resurs 1-4 Rocket 2.6 01:22:43 10° NNE 01:27:54 54° E 01:31:57 16° S
Cosmos 2297 4.0 01:25:55 10° NNW 01:31:43 74° ENE 01:37:27 10° SE
Cosmos 1943 Rocket 2.2 01:26:02 10° NNW 01:31:46 88° ENE 01:37:27 10° SSE
USA 290 4.3 01:32:42 12° W 01:34:50 20° NW 01:37:20 10° N
Cosmos 1709 Rocket 4.3 01:29:13 10° NNW 01:35:06 49° W 01:39:17 19° SSW
MOZ.5/SAFIR/RUBIN 5/SL-8 4.2 01:34:00 21° SSW 01:36:50 47° W 01:41:28 10° NNW
Cosmos 1626 4.3 01:36:40 11° WSW 01:38:49 16° WNW 01:41:11 10° NNW
Cosmos 2315 Rocket 4.2 01:35:34 19° SSW 01:40:15 67° WNW 01:46:38 10° N
Cosmos 2184 Rocket 4.1 01:35:46 10° N 01:42:05 78° E 01:48:17 10° SSE
Cosmos 2278 Rocket 3.3 01:37:52 10° NW 01:42:34 27° WSW 01:45:23 18° SW
EO 1 Delta rocket 4.2 01:38:03 10° N 01:42:34 55° WNW 01:46:02 19° SW
ADEOS II 3.1 01:38:46 10° NNE 01:43:45 41° E 01:48:40 10° SSE
IDEFIX/ARIANE 42P 3.8 01:39:45 10° NNE 01:44:36 36° E 01:49:25 10° SSE
USA 306 2.8 01:47:34 18° SW 01:50:33 67° SSE 01:54:42 10° ENE
Cosmos 2084 Rocket 3.6 01:49:15 21° SSW 01:51:29 50° SE 01:55:11 10° NE
Thor Agena Rocket 3.9 01:46:55 10° N 01:52:08 61° WNW 01:56:09 17° SW
USA 307 2.9 01:51:04 18° SW 01:54:03 64° SSE 01:58:12 10° ENE
NPP 3.8 01:50:32 10° NNE 01:55:58 74° ESE 02:00:36 14° S
ERBS 2.0 01:54:54 23° SW 01:56:35 66° SSE 01:59:38 10° ENE
Cosmos 2369 Rocket 2.7 01:51:25 10° NNW 01:57:00 61° NE 02:02:32 10° SE
Gblst 52 Del rocket 4.2 01:51:56 10° W 01:57:52 88° S 02:03:23 10° E
USA-17 4.5 01:55:09 10° NW 01:58:21 87° NE 02:02:20 10° SE
Cosmos 1455 Rocket 3.8 01:56:14 10° NNW 02:00:22 37° W 02:03:14 17° SSW
Cosmos 614 Rocket 4.0 01:55:32 10° NNW 02:00:46 87° ENE 02:06:00 10° SSE
Cosmos 2228 4.1 01:56:44 10° N 02:00:58 45° ENE 02:05:08 10° SSE
CZ-4 R/B 3.8 01:56:18 10° NNE 02:00:59 85° WNW 02:04:41 16° SSW
EO 1 Del DPAF 4.3 01:58:46 10° NNE 02:02:03 35° E 02:05:16 10° SSE
SL-16 R/B 2.5 01:58:00 15° SSW 02:02:37 63° ESE 02:08:14 10° NE
Cosmos 2251 Rocket 4.1 01:57:29 10° NNW 02:02:43 61° ENE 02:07:56 10° SE
Cosmos 1656 Rocket 4.3 02:01:02 10° NNW 02:06:24 58° NE 02:11:44 10° SE
Cosmos 1980 4.3 02:02:27 13° SW 02:07:18 51° NW 02:12:50 10° NNE
Meteor 1-28 Rocket 3.2 02:03:57 10° SSE 02:07:41 83° ENE 02:11:26 10° NNW
Cosmos 2333 Rocket 4.3 02:05:01 10° W 02:09:10 20° NNW 02:13:22 10° NNE
CZ-4C R/B 4.4 02:04:49 10° WNW 02:09:22 17° WSW 02:12:59 13° SW
USA 215 3.9 02:03:28 10° ENE 02:09:52 59° N 02:16:16 10° W
COSMOS 2455 3.7 02:04:48 11° S 02:10:07 41° ESE 02:15:44 10° NE
NOSS 3 (A) 3.2 02:10:22 37° WSW 02:10:50 64° NW 02:12:39 10° NE
Cosmos 332 Rocket 4.2 02:07:03 15° SW 02:10:50 52° WNW 02:15:33 10° NNE
Cosmos 1536 Rocket 3.9 02:08:03 11° S 02:12:12 66° E 02:16:33 10° NNE
Cosmos 1975 Rocket 4.0 02:16:47 14° SW 02:20:06 36° WNW 02:24:15 10° N
Nadezhda 1 Rocket 4.2 02:15:23 10° S 02:21:44 79° E 02:28:02 10° NNE
MSX 4.4 02:16:07 10° NNE 02:21:48 56° E 02:27:28 10° S
Meteor 1-24 Rocket 3.9 02:17:03 14° SSW 02:21:53 61° WNW 02:27:17 10° N
UNK 4.1 02:19:09 11° S 02:23:26 48° W 02:27:55 10° NNW
Cosmos 1455 2.6 02:20:42 10° NNW 02:24:15 43° W 02:27:22 13° SSW
USA 308 2.8 02:20:31 10° WSW 02:24:39 85° SSE 02:28:51 10° ENE
Cosmos 1025 Rocket 3.9 02:23:55 14° SW 02:27:17 36° WNW 02:31:18 10° N
MOS 1 Rocket 3.4 02:23:22 10° S 02:27:29 49° W 02:31:42 10° NNW
Cosmos 1271 Rocket 2.7 02:24:18 10° NNW 02:28:06 71° W 02:31:56 10° S
Cosmos 1606 Rocket 4.1 02:27:47 10° N 02:32:12 62° ENE 02:36:33 10° SSE
Cosmos 2219 Rocket 4.4 02:28:24 10° WNW 02:32:15 18° NNW 02:36:07 10° NNE
CZ-2D R/B 2.7 02:33:34 10° N 02:38:45 48° WNW 02:43:47 10° SW
Lacrosse 5 2.0 02:37:42 11° SW 02:42:37 72° SE 02:47:43 10° ENE
Helios 1B rocket 4.0 02:39:16 10° NNE 02:42:56 31° E 02:46:34 10° SSE
Cosmos 2341 Rocket 4.2 02:38:28 10° N 02:44:54 81° E 02:51:19 10° SSE
USA 305 3.0 02:43:55 10° W 02:48:06 77° NNW 02:52:18 10° ENE
Cosmos 2154 Rocket 4.3 02:42:08 10° NNW 02:48:17 52° W 02:54:21 10° SSW
Meteor 2-1 Rocket 4.4 02:43:39 10° NNW 02:49:30 88° ENE 02:55:10 10° SSE
Cosmos 407 Rocket 3.7 02:45:20 10° NNW 02:50:43 83° ENE 02:56:00 10° SSE
SL-8 Rocket 4.3 02:45:16 10° N 02:51:38 77° ENE 02:57:57 10° SSE
SAR-Lupe-2 4.5 02:51:35 10° N 02:54:54 36° WNW 02:58:12 10° SW
AQUA 4.4 02:51:13 10° N 02:55:46 45° WNW 03:00:17 10° SW
Cosmos 1943 4.0 02:52:15 10° S 02:57:41 48° ESE 03:03:09 10° NE
Cosmos 1328 4.4 02:53:58 10° S 02:57:50 58° E 03:01:47 10° NNE
Helios 1A 3.7 02:54:21 10° SSW 02:58:11 34° W 03:02:05 10° NNW
Genesis I 3.2 02:54:13 10° NW 02:58:20 82° SW 03:02:20 10° SE
Cosmos 2237 Rocket 3.6 02:54:49 10° W 02:59:44 29° NW 03:04:41 10° NNE
Lacrosse 5 rocket 1.4 02:57:37 10° SW 03:01:31 66° SE 03:05:38 10° ENE
Cosmos 1140 Rocket 3.5 02:56:23 10° NNW 03:01:40 80° WSW 03:06:54 10° SSE
ATLAS 2AS CENTAUR R/B 4.4 02:57:16 10° NW 03:04:09 39° NNE 03:10:37 10° E
SL-16 R/B 3.6 03:00:42 10° SSW 03:05:50 27° W 03:11:02 10° NW
Resurs 1-4 Rocket 3.3 03:02:58 10° N 03:07:28 29° WNW 03:11:58 10° WSW
NOSS 3-4 (A) 4.3 03:02:19 10° NW 03:08:59 67° NE 03:16:35 10° ESE
NOSS 3-4 (C) 4.4 03:02:23 10° NW 03:09:03 66° NE 03:16:37 10° ESE
Lacrosse 4 Rocket 4.2 03:08:25 10° SE 03:10:05 12° ESE 03:11:43 10° E
